Date String (YYYY-MM-DD hh:mm:ss) UTC,Instrument flags,Ambient pressure (hPa),Sample flow (lpm),Bypass flow (lpm),Sample temperature (°C),Ambient temperature (°C),ASC tube jacket temperature (°C),LED temperature (°C),Box temperature (°C),Sample RH (%),Span deviation,Mass concentration (μg/m³),Mass concentration (μg/m³),Mass concentration (μg/m³)
DateTimeUTC,F1_M11,P_M11,Q1_M11,Q2_M11,T1_M11,T2_M11,T3_M11,T4_M11,T5_M11,U1_M11,ZSPAN_M11,X2_M11,X0_M11,X1_M11
2021-12-11 04:00:00,,0822.7,5.00,0.00,22.7,23.1,00.0,31.5,24.6,04.8,0000.0,0001.44,0004.71,0001.03
2021-12-11 04:01:00,,0822.7,5.01,0.00,22.7,22.8,00.0,31.5,24.5,04.8,0000.0,0001.43,0004.51,0001.01
2021-12-11 04:02:00,,0822.7,5.00,0.00,22.6,22.6,00.0,31.5,24.4,04.8,0000.0,0001.47,0004.46,0001.01
2021-12-11 04:03:00,,0822.8,4.99,0.00,22.6,22.4,00.0,31.5,24.3,04.9,0000.0,0001.48,0004.53,0001.01
2021-12-11 04:04:00,,0822.8,5.01,0.00,22.5,22.2,00.0,31.5,24.2,04.9,0000.0,0001.45,0004.52,0001.00
2021-12-11 04:05:00,,0822.8,5.01,0.00,22.5,21.9,00.0,31.5,24.0,04.8,0000.0,0001.42,0005.21,0001.00
2021-12-11 04:06:00,,0822.7,4.99,0.00,22.4,21.7,00.0,31.4,23.9,04.8,0000.0,0001.41,0005.57,0000.99
2021-12-11 04:07:00,,0822.7,5.00,0.00,22.3,21.5,00.0,31.4,23.8,04.9,0000.0,0001.41,0005.60,0000.99
2021-12-11 04:08:00,,0822.7,5.01,0.00,22.2,21.4,00.0,31.4,23.7,05.0,0000.0,0001.43,0005.24,0001.00
2021-12-11 04:09:00,,0822.7,5.01,0.00,22.2,21.3,00.0,31.3,23.7,05.0,0000.0,0001.40,0003.70,0001.00
2021-12-11 04:10:00,,0822.7,5.00,0.00,22.1,21.3,00.0,31.3,23.7,05.1,0000.0,0001.38,0003.68,0000.99
2021-12-11 04:11:00,,0822.8,5.01,0.00,22.1,21.2,00.0,31.3,23.6,05.1,0000.0,0001.37,0003.62,0000.99
2021-12-11 04:12:00,,0822.7,4.98,0.00,22.1,21.2,00.0,31.3,23.6,04.9,0000.0,0001.36,0003.58,0001.00
2021-12-11 04:13:00,,0822.7,5.01,0.00,22.0,21.3,00.0,31.3,23.6,04.9,0000.0,0001.34,0003.57,0000.98
2021-12-11 04:14:00,,0822.7,4.99,0.00,22.1,22.0,00.0,31.3,23.9,05.0,0000.0,0001.30,0003.54,0000.96
2021-12-11 04:15:00,,0822.8,5.01,0.00,22.3,22.8,00.0,31.3,24.1,04.9,0000.0,0001.26,0003.41,0000.95
2021-12-11 04:16:00,,0822.8,5.01,0.00,22.4,23.0,00.0,31.3,24.3,04.9,0000.0,0001.25,0002.80,0000.94
2021-12-11 04:17:00,,0822.8,5.00,0.00,22.4,22.8,00.0,31.3,24.3,05.1,0000.0,0001.24,0002.37,0000.93
2021-12-11 04:18:00,,0822.8,4.99,0.00,22.4,22.5,00.0,31.3,24.2,05.3,0000.0,0001.22,0002.39,0000.92
2021-12-11 04:19:00,,0822.7,4.99,0.00,22.4,22.3,00.0,31.3,24.1,05.3,0000.0,0001.23,0002.38,0000.92
2021-12-11 04:20:00,,0822.7,5.01,0.00,22.4,22.2,00.0,31.3,24.1,05.2,0000.0,0001.22,0002.37,0000.91
2021-12-11 04:21:00,,0822.8,5.00,0.00,22.4,22.0,00.0,31.3,24.0,05.2,0000.0,0001.23,0002.43,0000.92
2021-12-11 04:22:00,,0822.8,4.99,0.00,22.3,21.9,00.0,31.3,24.0,05.2,0000.0,0001.25,0002.50,0000.94
2021-12-11 04:23:00,,0822.6,5.01,0.00,22.3,21.8,00.0,31.3,23.9,05.1,0000.0,0001.27,0002.52,0000.95
2021-12-11 04:24:00,,0822.6,4.98,0.00,22.2,21.7,00.0,31.3,23.8,05.1,0000.0,0001.26,0002.55,0000.95
2021-12-11 04:25:00,,0822.6,5.01,0.00,22.2,21.5,00.0,31.3,23.8,05.2,0000.0,0001.27,0002.50,0000.96
2021-12-11 04:26:00,,0822.7,4.98,0.00,22.2,21.4,00.0,31.3,23.7,05.3,0000.0,0001.29,0002.54,0000.96
2021-12-11 04:27:00,,0822.6,5.00,0.00,22.1,21.3,00.0,31.2,23.6,05.3,0000.0,0001.30,0002.69,0000.97
2021-12-11 04:28:00,,0822.7,5.00,0.00,22.1,21.3,00.0,31.2,23.5,05.4,0000.0,0001.28,0002.43,0000.98
2021-12-11 04:29:00,,0822.7,5.00,0.00,22.1,21.7,00.0,31.2,23.7,05.4,0000.0,0001.29,0002.30,0000.98
2021-12-11 04:30:00,,0822.7,4.99,0.00,22.2,22.4,00.0,31.3,24.0,05.5,0000.0,0001.26,0002.63,0000.97
2021-12-11 04:31:00,,0822.8,5.00,0.00,22.4,23.0,00.0,31.3,24.3,05.4,0000.0,0001.26,0002.78,0000.97
2021-12-11 04:32:00,,0822.7,5.01,0.00,22.4,22.8,00.0,31.3,24.3,05.3,0000.0,0001.28,0002.82,0000.97
2021-12-11 04:33:00,,0822.7,4.99,0.00,22.4,22.6,00.0,31.3,24.2,05.2,0000.0,0001.28,0002.92,0000.96
2021-12-11 04:34:00,,0822.6,5.01,0.00,22.4,22.3,00.0,31.3,24.1,05.2,0000.0,0001.27,0002.91,0000.96
2021-12-11 04:35:00,,0822.6,4.99,0.00,22.4,22.1,00.0,31.3,24.0,05.2,0000.0,0001.25,0002.83,0000.96
2021-12-11 04:36:00,,0822.6,5.00,0.00,22.3,22.0,00.0,31.3,24.0,05.3,0000.0,0001.27,0002.89,0000.97
2021-12-11 04:37:00,,0822.7,5.01,0.00,22.3,21.9,00.0,31.3,23.9,05.3,0000.0,0001.28,0002.97,0000.98
2021-12-11 04:38:00,,0822.6,4.99,0.00,22.3,21.7,00.0,31.3,23.9,05.2,0000.0,0001.28,0002.90,0000.99
2021-12-11 04:39:00,,0822.7,5.00,0.00,22.2,21.6,00.0,31.3,23.8,05.1,0000.0,0001.30,0003.81,0000.98
2021-12-11 04:40:00,,0822.6,4.99,0.00,22.2,21.5,00.0,31.3,23.8,05.2,0000.0,0001.27,0004.31,0000.97
2021-12-11 04:41:00,,0822.6,5.02,0.00,22.2,21.5,00.0,31.3,23.7,05.1,0000.0,0001.28,0004.09,0000.97
2021-12-11 04:42:00,,0822.7,4.99,0.00,22.1,21.4,00.0,31.2,23.6,05.0,0000.0,0001.24,0003.82,0000.96
2021-12-11 04:43:00,,0822.7,5.01,0.00,22.1,21.4,00.0,31.2,23.6,05.1,0000.0,0001.24,0003.87,0000.96
2021-12-11 04:44:00,,0822.6,4.99,0.00,22.1,21.8,00.0,31.2,23.8,05.1,0000.0,0001.23,0004.31,0000.96
2021-12-11 04:45:00,,0822.7,5.00,0.00,22.2,22.6,00.0,31.3,24.1,05.0,0000.0,0001.19,0004.79,0000.94
2021-12-11 04:46:00,,0822.8,5.01,0.00,22.4,23.2,00.0,31.3,24.3,05.1,0000.0,0001.20,0004.89,0000.93
2021-12-11 04:47:00,,0822.7,5.00,0.00,22.5,23.0,00.0,31.3,24.4,05.1,0000.0,0001.20,0004.90,0000.93
2021-12-11 04:48:00,,0822.8,4.99,0.00,22.5,22.7,00.0,31.3,24.3,05.1,0000.0,0001.21,0004.82,0000.94
2021-12-11 04:49:00,,0822.8,5.00,0.00,22.4,22.5,00.0,31.3,24.1,05.1,0000.0,0001.22,0004.83,0000.94
2021-12-11 04:50:00,,0822.7,5.00,0.00,22.4,22.3,00.0,31.3,24.0,05.1,0000.0,0001.21,0004.12,0000.94
2021-12-11 04:51:00,,0822.8,5.01,0.00,22.4,22.0,00.0,31.3,24.0,05.2,0000.0,0001.27,0003.61,0000.96
2021-12-11 04:52:00,,0822.8,5.00,0.00,22.3,21.9,00.0,31.3,23.9,05.2,0000.0,0001.34,0004.64,0000.97
2021-12-11 04:53:00,,0822.8,5.00,0.00,22.3,21.7,00.0,31.3,23.8,05.2,0000.0,0001.37,0005.30,0000.99
2021-12-11 04:54:00,,0822.7,5.00,0.00,22.2,21.6,00.0,31.3,23.7,05.3,0000.0,0001.41,0005.58,0001.00
2021-12-11 04:55:00,,0822.8,5.00,0.00,22.2,21.5,00.0,31.3,23.7,05.3,0000.0,0001.41,0005.39,0001.01
2021-12-11 04:56:00,,0822.7,5.00,0.00,22.2,21.5,00.0,31.3,23.7,05.4,0000.0,0001.43,0004.46,0001.02
2021-12-11 04:57:00,,0822.8,4.99,0.00,22.1,21.4,00.0,31.3,23.6,05.3,0000.0,0001.44,0004.42,0001.03
2021-12-11 04:58:00,,0822.8,5.00,0.00,22.1,21.3,00.0,31.2,23.6,05.3,0000.0,0001.44,0004.39,0001.03
2021-12-11 04:59:00,,0822.8,5.00,0.00,22.1,21.8,00.0,31.3,23.8,05.4,0000.0,0001.45,0004.66,0001.02
